This demonstration page uses our WeatherBlox Daily Observations layout. Learn more.

Left ArrowRight Arrow

Hourly Observations for January 23, 2015

Temp ( °F °C ) Dew Point ( °F °C ) Humidity (%) Winds ( mph kmh ) Pressure ( in mb ) Visibility ( mi km ) Precip ( " mm )
12:16 am 00:16 Cloudy 30 -1 18 -8 59 59 Calm 30.42 1030 10 16.0934 N/A
12:35 am 00:35 Cloudy 30 -1 18 -8 59 59 Calm 30.42 1030 10 16.0934 N/A
12:55 am 00:55 Cloudy 30 -1 16 -9 55 55 Calm 30.42 1030 10 16.0934 N/A
1:15 am 01:15 Cloudy 30 -1 16 -9 55 55 Calm 30.42 1030 10 16.0934 N/A
1:35 am 01:35 Cloudy 30 -1 18 -8 59 59 E 5 7 30.42 1030 10 16.0934 N/A
1:56 am 01:56 Cloudy 30 -1 16 -9 55 55 Calm 30.39 1029 10 16.0934 N/A
2:15 am 02:15 Cloudy 28 -2 16 -9 59 59 Calm 30.39 1029 10 16.0934 N/A
2:35 am 02:35 Cloudy 28 -2 18 -8 64 64 SE 5 7 30.39 1029 10 16.0934 N/A
2:56 am 02:56 Cloudy 28 -2 16 -9 59 59 Calm 30.39 1029 10 16.0934 N/A
3:15 am 03:15 Cloudy 28 -2 16 -9 59 59 Calm 30.39 1029 10 16.0934 N/A
3:35 am 03:35 Cloudy 28 -2 18 -8 64 64 Calm 30.39 1029 10 16.0934 N/A
3:56 am 03:56 Cloudy 28 -2 16 -9 59 59 ENE 6 9 30.39 1029 10 16.0934 N/A
4:15 am 04:15 Cloudy 28 -2 16 -9 59 59 Calm 30.36 1028 10 16.0934 N/A
4:35 am 04:35 Cloudy 28 -2 16 -9 59 59 Calm 30.36 1028 10 16.0934 N/A
4:56 am 04:56 Cloudy 28 -2 16 -9 59 59 Calm 30.36 1028 10 16.0934 N/A
5:15 am 05:15 Cloudy 28 -2 16 -9 59 59 Calm 30.36 1028 10 16.0934 N/A
5:36 am 05:36 Cloudy 28 -2 18 -8 64 64 E 3 6 30.33 1027 10 16.0934 N/A
5:55 am 05:55 Cloudy 28 -2 16 -9 59 59 S 5 7 30.33 1027 10 16.0934 N/A
6:15 am 06:15 Cloudy 28 -2 16 -9 59 59 Calm 30.33 1027 10 16.0934 N/A
6:36 am 06:36 Cloudy 28 -2 16 -9 59 59 Calm 30.33 1027 10 16.0934 N/A
6:55 am 06:55 Cloudy 28 -2 16 -9 59 59 Calm 30.33 1027 10 16.0934 N/A
7:16 am 07:16 Cloudy 28 -2 16 -9 59 59 Calm 30.33 1027 10 16.0934 N/A
7:35 am 07:35 Cloudy 28 -2 16 -9 59 59 Calm 30.33 1027 10 16.0934 N/A
7:55 am 07:55 Cloudy 28 -2 16 -9 59 59 Calm 30.3 1026 10 16.0934 N/A
8:16 am 08:16 Cloudy 28 -2 16 -9 59 59 WNW 3 6 30.3 1026 10 16.0934 N/A
8:35 am 08:35 Cloudy 28 -2 18 -8 64 64 W 5 7 30.3 1026 10 16.0934 N/A
8:55 am 08:55 Cloudy 28 -2 18 -8 64 64 Calm 30.3 1026 10 16.0934 N/A
9:16 am 09:16 Cloudy 28 -2 18 -8 64 64 Calm 30.3 1026 10 16.0934 N/A
9:35 am 09:35 Cloudy 28 -2 16 -9 59 59 Calm 30.27 1025 10 16.0934 N/A
9:56 am 09:56 Cloudy 30 -1 16 -9 55 55 WSW 3 6 30.27 1025 10 16.0934 N/A
10:15 am 10:15 Cloudy 28 -2 16 -9 59 59 Calm 30.27 1025 10 16.0934 N/A
10:35 am 10:35 Cloudy 30 -1 18 -8 59 59 Calm 30.24 1024 10 16.0934 N/A
10:56 am 10:56 Cloudy 30 -1 16 -9 55 55 Calm 30.24 1024 10 16.0934 N/A
11:15 am 11:15 Cloudy 30 -1 16 -9 55 55 Calm 30.24 1024 10 16.0934 N/A
11:36 am 11:36 Cloudy 30 -1 16 -9 55 55 W 3 6 30.24 1024 10 16.0934 N/A
11:55 am 11:55 Cloudy 30 -1 16 -9 55 55 W 5 7 30.24 1024 10 16.0934 N/A
12:15 pm 12:15 Cloudy 32 0 16 -9 51 51 WNW 3 6 30.24 1024 10 16.0934 N/A
12:36 pm 12:36 Cloudy 32 0 16 -9 51 51 SW 3 6 30.24 1024 10 16.0934 N/A
12:55 pm 12:55 Mostly Cloudy 32 0 16 -9 51 51 W 5 7 30.21 1023 10 16.0934 N/A
1:15 pm 13:15 Partly Cloudy 34 1 16 -9 48 48 Calm 30.18 1022 10 16.0934 N/A
1:35 pm 13:35 Partly Cloudy 32 0 16 -9 51 51 Calm 30.18 1022 10 16.0934 N/A
1:55 pm 13:55 Partly Cloudy 34 1 16 -9 48 48 Calm 30.15 1021 10 16.0934 N/A
2:16 pm 14:16 Sunny 36 2 16 -9 44 44 Calm 30.15 1021 10 16.0934 N/A
2:35 pm 14:35 Sunny 36 2 16 -9 44 44 SW 3 6 30.12 1020 10 16.0934 N/A
2:55 pm 14:55 Sunny 36 2 16 -9 44 44 Calm 30.12 1020 10 16.0934 N/A
3:16 pm 15:16 Sunny 36 2 16 -9 44 44 Calm 30.12 1020 10 16.0934 N/A
3:35 pm 15:35 Sunny 34 1 18 -8 51 51 SSE 3 6 30.12 1020 10 16.0934 N/A
3:55 pm 15:55 Sunny 34 1 18 -8 51 51 Calm 30.09 1019 10 16.0934 N/A
4:16 pm 16:16 Sunny 34 1 18 -8 51 51 Calm 30.09 1019 10 16.0934 N/A
4:35 pm 16:35 Sunny 34 1 18 -8 51 51 NE 3 6 30.09 1019 10 16.0934 N/A
4:56 pm 16:56 Partly Cloudy 34 1 19 -7 56 56 Calm 30.09 1019 10 16.0934 N/A
5:15 pm 17:15 Partly Cloudy 32 0 19 -7 60 60 N 9 15 30.09 1019 10 16.0934 N/A
5:35 pm 17:35 Mostly Cloudy 32 0 19 -7 60 60 N 9 15 30.09 1019 10 16.0934 N/A
5:55 pm 17:55 Partly Cloudy 30 -1 19 -7 64 64 N 10 17 30.06 1018 10 16.0934 N/A
6:15 pm 18:15 Clear 30 -1 19 -7 64 64 N 9 15 30.06 1018 10 16.0934 N/A
6:36 pm 18:36 Mostly Cloudy 30 -1 19 -7 64 64 N 5 7 30.09 1019 10 16.0934 N/A
6:55 pm 18:55 Cloudy 30 -1 19 -7 64 64 NNE 5 7 30.09 1019 10 16.0934 N/A
7:16 pm 19:16 Cloudy 30 -1 19 -7 64 64 N 5 7 30.06 1018 10 16.0934 N/A
7:35 pm 19:35 Cloudy 30 -1 19 -7 64 64 NE 5 7 30.06 1018 10 16.0934 N/A
7:56 pm 19:56 Cloudy 30 -1 19 -7 64 64 NE 5 7 30.06 1018 10 16.0934 N/A
8:15 pm 20:15 Cloudy 30 -1 21 -6 69 69 NE 3 6 30.06 1018 10 16.0934 N/A
8:35 pm 20:35 Mostly Cloudy 28 -2 21 -6 74 74 Calm 30.03 1017 10 16.0934 N/A
8:56 pm 20:56 Clear 27 -3 19 -7 74 74 Calm 30.03 1017 10 16.0934 N/A
9:15 pm 21:15 Clear 27 -3 19 -7 74 74 Calm 30 1016 10 16.0934 N/A
9:35 pm 21:35 Clear 25 -4 21 -6 86 86 NNW 3 6 30 1016 10 16.0934 N/A
9:56 pm 21:56 Clear 27 -3 27 -3 100 100 Calm 30 1016 10 16.0934 N/A
10:15 pm 22:15 Clear 27 -3 25 -4 93 93 Calm 30 1016 10 16.0934 N/A
10:35 pm 22:35 Partly Cloudy 27 -3 27 -3 100 100 WNW 3 6 29.97 1015 7 11.26538 N/A
10:56 pm 22:56 Mostly Cloudy 27 -3 27 -3 100 100 W 3 6 30 1016 7 11.26538 N/A
11:15 pm 23:15 Cloudy 28 -2 28 -2 100 100 Calm 29.97 1015 10 16.0934 N/A
11:35 pm 23:35 Cloudy 28 -2 27 -3 93 93 W 5 7 29.97 1015 10 16.0934 N/A
11:56 pm 23:56 Cloudy 28 -2 21 -6 74 74 WNW 8 13 29.94 1014 10 16.0934 N/A

Powered by AerisWeather